Location: Kott?ru
(16.6209°N, 80.6208°E)
Time: 14:05:02
(UTC+00:00)

Helios 1A Rocket - Pass Details

Date: 18 September 2020
Orbit: 563 x 586 km, 98.3° (Epoch: 29 October)

Event Time Altitude Azimuth Distance (km) Brightness Sun altitude
Rises 13:09:27 0° 168° (SSE) 2,758 6.2 -8.6°
Reaches altitude 10° 13:11:35 10° 168° (SSE) 1,866 5.4 -9.1°
Maximum altitude 13:15:37 90° 199° (SSW) 577 2.9 -10.1°
Drops below altitude 10° 13:19:43 10° 348° (NNW) 1,884 5.8 -11.1°
Sets 13:21:52 0° 348° (NNW) 2,787 6.6 -11.6°
